Voltar ao catálogo

COSMOS 2167

AtivoMilitarPO
NORAD 21781·PAYLOAD·🇷🇺 Russia

Lançado Nov 12, 1991 de Plesetsk Cosmodrome

Loading…

Próximas Passagens (próximas 24 horas)

TLE

AtualizadoSource: Space-Track

Época: Sep 14, 2026, 05:06 UTC

1 21781U 91077C   26257.21307419  .00000027  00000-0  87822-4 0  9992
2 21781  82.6092 183.9153 0005661 236.5138 279.8321 12.64293924607191

Acompanhe COSMOS 2167 em tempo real com AllMySat

Download on the App Store